Flag for Denmark Weather past 2 weeks in Vejle, Denmark

Now
39 °F

Low clouds.


Feels Like: 36 °F
Forecast: 42 / 49 °F
Wind: 5 mph from Southwest

Location: Billund Lufthavn

Current Time: Dec 18, 2014 at 12:50:32 AM

Latest Report: Dec 18, 2014 at 12:20 AM


Visibility: 1 mi

Pressure: 29.53 "Hg

Humidity: 100%

Dew point: 39 °F

Location of VejleLocation

Historic Weather in Vejle — Graph

°F

Vejle temperature yesterday

Maximum temperature yesterday: 41 °F (at 12:50 AM)
Minimum temperature yesterday: 37 °F (at 7:20 AM)
Average temperature yesterday: 38 °F

Past Weeks' High & Low Weather Summary

 TemperatureHumidityPressure
High45 °F (Dec 10, 12:50 PM)100% (Dec 3, 9:20 PM)30.30 "Hg (Dec 3, 9:20 PM)
Low23 °F (Dec 9, 4:50 AM)70% (Dec 3, 1:20 PM)28.91 "Hg (Dec 12, 2:20 PM)
Average37 °F91%29.75 "Hg
* Reported Dec 2 11:20 PM — Dec 17 11:20 PM, Vejle, Weather by CustomWeather, © 2014

Note: Actual official high and low records may vary slightly from our data, if they occured in-between our weather recording intervals... More about our weather records

Advertising

Vejle weather history for previous 24 hours

 ConditionsComfort  
Time TempWeatherWind HumidityBarometerVisibility
11:20 PM
Dec 17
37 °FFog.3 mph100%29.53 "Hg1 mi
10:50 PM37 °FLow clouds.7 mph100%29.53 "Hg1 mi
10:20 PM37 °FFog.7 mph100%29.53 "Hg1 mi
9:50 PM37 °FFog.6 mph100%29.53 "Hg2 mi
9:20 PM37 °FDrizzle. Low clouds.5 mph100%29.53 "Hg2 mi
8:50 PM37 °FDrizzle. Low clouds.5 mph100%29.53 "Hg2 mi
8:20 PM37 °FFog.3 mph100%29.53 "Hg2 mi
7:50 PM37 °FFog.5 mph100%29.50 "Hg2 mi
7:20 PM37 °FFog.3 mph100%29.50 "Hg2 mi
6:50 PM37 °FFog.5 mph100%29.50 "Hg2 mi
6:20 PM37 °FFog.5 mph100%29.47 "Hg2 mi
5:50 PM37 °FFog.7 mph93%29.47 "Hg2 mi
5:20 PM37 °FFog.7 mph93%29.47 "Hg2 mi
4:50 PM37 °FFog.7 mph93%29.47 "Hg2 mi
4:20 PM37 °FLow clouds.7 mph93%29.47 "Hg3 mi
3:50 PM37 °FDrizzle. Low clouds.7 mph93%29.47 "Hg3 mi
3:20 PM37 °FDrizzle. Low clouds.7 mph93%29.47 "Hg4 mi
2:50 PM37 °FDrizzle. Fog.6 mph93%29.47 "Hg3 mi
2:20 PM37 °FPartly sunny.7 mph93%29.47 "Hg4 mi
1:50 PM37 °FDrizzle. Low clouds.8 mph100%29.47 "Hg5 mi
1:20 PM39 °FDrizzle. Low clouds.8 mph93%29.47 "Hg6 mi
12:50 PM39 °FDrizzle. Partly sunny.8 mph93%29.47 "HgN/A
12:20 PM39 °FDrizzle. Low clouds.10 mph93%29.47 "HgN/A
11:50 AM39 °FDrizzle. Low clouds.8 mph93%29.50 "Hg4 mi
11:20 AM39 °FDrizzle. Low clouds.9 mph100%29.50 "Hg4 mi
10:50 AM39 °FDrizzle. Low clouds.8 mph93%29.50 "Hg3 mi
10:20 AM39 °FLow clouds.8 mph93%29.53 "Hg6 mi
9:50 AM39 °FPartly sunny.8 mph93%29.53 "HgN/A
9:20 AM39 °FPartly sunny.7 mph93%29.53 "HgN/A
8:50 AM39 °FLight rain. Partly sunny.7 mph93%29.53 "Hg6 mi
8:20 AM37 °FPassing clouds.8 mph93%29.53 "HgN/A
7:50 AM37 °FPassing clouds.6 mph87%29.56 "HgN/A
7:20 AM37 °FPassing clouds.7 mph93%29.56 "HgN/A
6:50 AM39 °FPassing clouds.5 mph81%29.56 "HgN/A
6:20 AM39 °FPassing clouds.5 mph81%29.56 "HgN/A
5:50 AM39 °FPassing clouds.5 mph81%29.59 "HgN/A
5:20 AM39 °FSprinkles. Passing clouds.9 mph81%29.59 "HgN/A
4:50 AM39 °FPassing clouds.9 mph81%29.59 "HgN/A
4:20 AM39 °FPassing clouds.10 mph81%29.59 "HgN/A
3:50 AM39 °FPassing clouds.9 mph81%29.59 "HgN/A
3:20 AM39 °FPassing clouds.12 mph87%29.59 "HgN/A
2:50 AM39 °FPassing clouds.13 mph87%29.59 "HgN/A
2:20 AM41 °FSprinkles. Passing clouds.13 mph87%29.59 "HgN/A
1:50 AM39 °FPassing clouds.14 mph93%29.59 "HgN/A
1:20 AM39 °FPassing clouds.15 mph93%29.59 "HgN/A
12:50 AM41 °FSprinkles. Partly cloudy.13 mph87%29.59 "HgN/A
12:20 AM39 °FSprinkles. Partly cloudy.22 mph93%29.59 "Hg6 mi
Weather by CustomWeather, © 2014

See weather overviewHow to use our weather pages